Location: Stony Creek
(40.9500°S, 175.8500°E)
Time: 10:10:02
(UTC+00:00)

Meteor 2-8 Rocket - Pass Details

Date: 15 May 2026
Orbit: 937 x 957 km, 82.5° (Epoch: 10 June)

Event Time Altitude Azimuth Distance (km) Brightness Sun altitude
Rises 18:02:54 0° 349° (N) 3,626 7.5 -14.2°
Reaches altitude 10° 18:05:24 10° 347° (NNW) 2,688 6.8 -13.7°
Maximum altitude 18:11:33 74° 261° (W) 1,003 4.4 -12.6°
Drops below altitude 10° 18:17:47 10° 176° (S) 2,714 6.7 -11.4°
Sets 18:20:19 0° 173° (S) 3,664 7.4 -11.0°
